GW4058 Weather Reports


Display with metric or nautical units.
time (UTC)temp
F
wind
direction
speed
MPH
gust
MPH
rain 1hr
in
rain 24hr
in
rain mn
in
humidity
%
barometer
mb
20260504050542 38 0.0 0.0 0.00 0.00 0.00 87 1015.9
20260504045522 38 0.0 1.0 0.00 0.00 0.00 86 1015.9
20260504044542 39 0.0 1.0 0.00 0.00 0.00 85 1015.8
20260504043516 40 0.0 0.0 0.00 0.00 0.00 84 1015.8
20260504042518 40 0.0 2.0 0.00 0.00 0.00 84 1015.7
20260504041520 39 0.0 3.0 0.00 0.00 0.00 85 1015.8
20260504040517 40 1.0 3.0 0.00 0.00 0.00 83 1015.7
20260504035524 40 1.0 4.0 0.00 0.00 0.00 82 1015.7
20260504034518 40 1.0 4.0 0.00 0.00 0.00 79 1015.6
20260504033518 41 1.0 4.0 0.00 0.00 0.00 78 1015.6
20260504032521 41 3.0 4.0 0.00 0.00 0.00 76 1015.4
20260504031518 41 3.0 5.0 0.00 0.00 0.00 78 1015.3
20260504030521 42 2.0 5.0 0.00 0.00 0.00 75 1015.2
20260504025519 42 1.0 4.0 0.00 0.00 0.00 73 1015.2
20260504024519 43 1.0 4.0 0.00 0.00 0.00 73 1015.2
20260504023542 43 2.0 4.0 0.00 0.00 0.00 72 1015.2
20260504022522 44 1.0 3.0 0.00 0.00 0.00 69 1015.2
20260504021536 44 3.0 5.0 0.00 0.00 0.00 65 1015.1
20260504020519 45 2.0 4.0 0.00 0.00 0.00 69 1015.1
20260504015604 45 2.0 5.0 0.00 0.00 0.00 65 1015.0
20260504014537 46 1.0 4.0 0.00 0.00 0.00 63 1015.0
20260504013517 47 2.0 5.0 0.00 0.00 0.00 63 1015.1
20260504012537 48 1.0 4.0 0.00 0.00 0.00 62 1015.0
20260504011526 49 3.0 5.0 0.00 0.00 0.00 55 1014.8
20260504010522 49 3.0 4.0 0.00 0.00 0.00 54 1014.8
20260504005526 50 3.0 4.0 0.00 0.00 0.00 54 1014.7
20260504004519 52 2.0 4.0 0.00 0.00 0.00 48 1014.6
20260504003541 53 1.0 3.0 0.00 0.00 0.00 44 1014.5
20260504002518 53 2.0 4.0 0.00 0.00 0.00 45 1014.4
20260504001522 56 4.0 6.0 0.00 0.00 0.00 43 1014.3
20260504000522 57 3.0 5.0 0.00 0.00 0.00 39 1014.2
20260503235519 59 2.0 7.0 0.00 0.00 0.00 37 1014.2
20260503234537 59 5.0 9.0 0.00 0.00 0.00 36 1014.0
20260503233522 60 6.0 9.0 0.00 0.00 0.00 35 1014.0
20260503232522 60 6.0 9.0 0.00 0.00 0.00 35 1013.9
20260503231606 60 6.0 9.0 0.00 0.00 0.00 35 1013.7
20260503230516 60 6.0 9.0 0.00 0.00 0.00 35 1013.7
20260503225517 61 6.0 9.0 0.00 0.00 0.00 35 1013.7
20260503224523 61 6.0 12.0 0.00 0.00 0.00 35 1013.8
20260503223518 60 6.0 13.0 0.00 0.00 0.00 34 1013.8
20260503222522 60 6.0 12.0 0.00 0.00 0.00 34 1013.8
20260503221520 60 9.0 15.0 0.00 0.00 0.00 35 1013.7
20260503220520 60 7.0 11.0 0.00 0.00 0.00 35 1013.8
20260503215539 60 10.0 13.0 0.00 0.00 0.00 35 1013.8
20260503214521 60 9.0 12.0 0.00 0.00 0.00 35 1013.8
20260503213541 60 9.0 13.0 0.00 0.00 0.00 35 1013.8
20260503212521 59 8.0 14.0 0.00 0.00 0.00 36 1013.8
20260503211543 59 9.0 14.0 0.00 0.00 0.00 36 1013.8
20260503210522 59 8.0 12.0 0.00 0.00 0.00 36 1013.8
20260503205522 59 8.0 14.0 0.00 0.00 0.00 36 1013.9
20260503204519 59 7.0 13.0 0.00 0.00 0.00 37 1013.8
20260503203522 59 8.0 16.0 0.00 0.00 0.00 37 1013.9
20260503202517 58 8.0 15.0 0.00 0.00 0.00 37 1014.0
20260503201522 58 7.0 11.0 0.00 0.00 0.00 37 1014.2
20260503200523 58 9.0 13.0 0.00 0.00 0.00 36 1014.2
20260503195517 58 6.0 11.0 0.00 0.00 0.00 39 1014.3
20260503194521 58 7.0 11.0 0.00 0.00 0.00 39 1014.5
20260503193518 58 6.0 12.0 0.00 0.00 0.00 39 1014.7
20260503192543 57 6.0 10.0 0.00 0.00 0.00 40 1014.8
20260503191537 57 7.0 11.0 0.00 0.00 0.00 41 1015.0
20260503190521 56 6.0 11.0 0.00 0.00 0.00 41 1014.9
20260503185520 56 6.0 13.0 0.00 0.00 0.00 41 1015.2
20260503184521 56 5.0 10.0 0.00 0.00 0.00 43 1015.2
20260503183521 55 6.0 10.0 0.00 0.00 0.00 42 1015.4
20260503182521 55 5.0 8.0 0.00 0.00 0.00 43 1015.4
20260503181521 55 4.0 10.0 0.00 0.00 0.00 44 1015.4
20260503180543 54 7.0 11.0 0.00 0.00 0.00 42 1015.5
20260503175520 54 7.0 13.0 0.00 0.00 0.00 43 1015.6
20260503174520 53 6.0 13.0 0.00 0.00 0.00 44 1015.8
20260503173523 53 7.0 11.0 0.00 0.00 0.00 44 1015.7
20260503172522 53 7.0 15.0 0.00 0.00 0.00 44 1015.7
20260503171518 52 7.0 10.0 0.00 0.00 0.00 45 1016.0
20260503170524 51 5.0 9.0 0.00 0.00 0.00 47 1016.0
20260503150522 48 7.0 12.0 0.00 0.00 0.00 48 1016.5
20260503130523 45 5.0 13.0 0.00 0.00 0.00 56 1016.6
20260503110520 39 3.0 8.0 0.00 0.00 0.00 74 1015.9
20260503081520 40 4.0 7.0 0.00 0.00 0.00 76 1014.3
20260503080520 40 4.0 7.0 0.00 0.00 0.00 76 1014.2